Regional Weather Roundup
Issued by NWS Charleston, WV

Home | Current Version | Previous Version | Text Only | Print | Product List | Glossary On
Versions: 1 2 3 4 5 6 7 8 9 10 11 12 13 14 15 16 17 18 19 20 21 22 23 24 25 26 27 28 29 30 31 32 33 34 35 36 37 38 39 40 41 42 43 44 45 46 47 48 49 50
082
ASUS41 KRLX 010910
RWRRLX
West Virginia Regional Weather Roundup
National Weather Service Charleston WV
500 AM EDT FRI JUL 01 2016

Note: "fair" indicates few or no clouds below 12,000 feet with no
significant weather and/or obstructions to visibility.

WVZ003-011000-
Northern Panhandle of West Virginia

CITY           SKY/WX    TMP DP  RH WIND       PRES   REMARKS
WHEELING         N/A     60  54  80 SW3       29.96S
$$

WVZ009-011000-
Northwest West Virginia

CITY           SKY/WX    TMP DP  RH WIND       PRES   REMARKS
PARKERSBURG      N/A     56  54  93 CALM      29.99R FOG
$$

WVZ006-011000-
Western West Virginia

CITY           SKY/WX    TMP DP  RH WIND       PRES   REMARKS
HUNTINGTON       N/A     60  57  89 CALM      29.96S
$$

WVZ015-011000-
West Central West Virginia

CITY           SKY/WX    TMP DP  RH WIND       PRES   REMARKS
CHARLESTON       N/A     61  59  93 CALM      29.97S
$$

WVZ022-031-011000-
North Central West Virginia

CITY           SKY/WX    TMP DP  RH WIND       PRES   REMARKS
CLARKSBURG       N/A     58  56  93 CALM      29.98S
MORGANTOWN       N/A     61  54  77 CALM      29.98S
$$

WVZ025-035-042-045-011000-
Southern West Virginia

CITY           SKY/WX    TMP DP  RH WIND       PRES   REMARKS
BECKLEY          N/A     61  59  93 CALM      30.04S FOG
LOGAN          NOT AVBL
BLUEFIELD        N/A     64  61  90 CALM      30.06F
LEWISBURG      MOCLDY    59  59  97 CALM      30.03F FOG
$$

WVZ047-011000-
Northern Mountains of West Virginia

CITY           SKY/WX    TMP DP  RH WIND       PRES   REMARKS
ELKINS         CLOUDY    60  57  89 CALM      30.02F
$$

WVZ052-011000-
Eastern Panhandle of West Virginia

CITY           SKY/WX    TMP DP  RH WIND       PRES   REMARKS
MARTINSBURG      N/A     60  59  96 CALM      29.97S
PETERSBURG     CLOUDY    62  62  99 CALM      30.00S FOG
$$




USA.gov is the U.S. government's official web portal to all federal, state and local government web resources and services.